sat.trackr.live / text

‹ back to catalog

STARLINK-3658

NORAD 52107 · 2022-029V

PAYLOAD ACTIVE UNKNOWN

§ Identity

Operator
Country
US
Launch date
2022-03-19
Launch site
AFETR
Launch vehicle
Mass (kg)
RCS (m²)

Purposes: comms

External: N2YO · Heavens-Above · Gunter

§ Orbital elements

Epoch: 2026-05-25T03:12:26.952192Z

Period
95.44 min
Inclination
53.2153°
Eccentricity
0.0001425
Mean motion
15.08841478 rev/d
Perigee alt
538.8 km
Apogee alt
540.7 km
Semi-major
6,917.9 km
B*
7.4824e-6
RAAN
95.9507°
Arg perigee
83.4893°
Mean anomaly
276.6262°
Rev number
23,232

§ Raw data

STARLINK-36581 52107U 22029V   26145.13364528 -.00000169  00000+0  74824-5 0  99962 52107  53.2153  95.9507 0001425  83.4893 276.6262 15.08841478232327

JSON: /api/v1/satellites/52107 · /tle

For live sub-satellite position, see the globe view (requires WebGL).

§ Visibility from observer

Set your observer location to see the next 7 days of passes ≥ 10°. The values pass through the URL so the page stays shareable.

No JS? Fill the form by hand. The geolocation button needs JavaScript.